| time (UTC) | temp F | wind direction | speed MPH | gust MPH | rain 1hr in | rain 24hr in | rain mn in | humidity % | barometer mb |
| 20260510214345 | 90 | 124 | 1.0 | 11.0 | 0.00 | 0.00 | 0.00 | 67 | 1008.5 |
| 20260510213445 | 91 | 141 | 2.0 | 12.0 | 0.00 | 0.00 | 0.00 | 65 | 1008.5 |
| 20260510212546 | 92 | 120 | 1.0 | 10.0 | 0.00 | 0.00 | 0.00 | 63 | 1008.5 |
| 20260510211646 | 92 | 114 | 0.0 | 7.0 | 0.00 | 0.00 | 0.00 | 65 | 1008.5 |
| 20260510210745 | 93 | 128 | 1.0 | 7.0 | 0.00 | 0.00 | 0.00 | 63 | 1008.3 |
| 20260510205845 | 93 | 150 | 0.0 | 6.0 | 0.00 | 0.00 | 0.00 | 64 | 1008.3 |
| 20260510204945 | 92 | 158 | 1.0 | 10.0 | 0.00 | 0.00 | 0.00 | 61 | 1008.2 |
| 20260510204045 | 92 | 106 | 1.0 | 6.0 | 0.00 | 0.00 | 0.00 | 64 | 1008.1 |
| 20260510203146 | 92 | 91 | 2.0 | 10.0 | 0.00 | 0.00 | 0.00 | 64 | 1008.1 |
| 20260510202245 | 92 | 126 | 1.0 | 7.0 | 0.00 | 0.00 | 0.00 | 64 | 1008.1 |
| 20260510201346 | 92 | 121 | 1.0 | 7.0 | 0.00 | 0.00 | 0.00 | 63 | 1008.1 |
| 20260510195545 | 92 | 151 | 0.0 | 7.0 | 0.00 | 0.00 | 0.00 | 63 | 1008.1 |
| 20260510194645 | 92 | 176 | 1.0 | 7.0 | 0.00 | 0.00 | 0.00 | 63 | 1008.1 |
| 20260510193745 | 92 | 186 | 1.0 | 13.0 | 0.00 | 0.00 | 0.00 | 63 | 1008.1 |
| 20260510192845 | 91 | 182 | 1.0 | 10.0 | 0.00 | 0.00 | 0.00 | 62 | 1008.1 |
| 20260510191945 | 91 | 165 | 1.0 | 9.0 | 0.00 | 0.00 | 0.00 | 65 | 1008.2 |
| 20260510191045 | 91 | 174 | 1.0 | 9.0 | 0.00 | 0.00 | 0.00 | 64 | 1008.3 |
| 20260510190145 | 91 | 140 | 2.0 | 17.0 | 0.00 | 0.00 | 0.00 | 66 | 1008.3 |
| 20260510184345 | 90 | 105 | 3.0 | 12.0 | 0.00 | 0.00 | 0.00 | 69 | 1008.5 |
| 20260510183445 | 90 | 138 | 1.0 | 12.0 | 0.00 | 0.00 | 0.00 | 68 | 1008.7 |
| 20260510182545 | 90 | 160 | 2.0 | 9.0 | 0.00 | 0.00 | 0.00 | 71 | 1008.9 |
| 20260510181645 | 90 | 164 | 2.0 | 13.0 | 0.00 | 0.00 | 0.00 | 69 | 1008.9 |
| 20260510180745 | 89 | 177 | 3.0 | 13.0 | 0.00 | 0.00 | 0.00 | 70 | 1009.1 |
| 20260510175845 | 89 | 183 | 2.0 | 12.0 | 0.00 | 0.00 | 0.00 | 71 | 1009.1 |
| 20260510174045 | 89 | 90 | 0.0 | 5.0 | 0.00 | 0.00 | 0.00 | 72 | 1009.3 |
| 20260510173145 | 88 | 156 | 1.0 | 10.0 | 0.00 | 0.00 | 0.00 | 71 | 1009.3 |
| 20260510172245 | 88 | 97 | 0.0 | 6.0 | 0.00 | 0.00 | 0.00 | 72 | 1009.5 |
| 20260510165411 | 88 | 85 | 1.0 | 6.0 | 0.00 | 0.00 | 0.00 | 72 | 1009.6 |
| 20260510164511 | 87 | 95 | 1.0 | 12.0 | 0.00 | 0.00 | 0.00 | 74 | 1009.6 |
| 20260510163611 | 86 | 113 | 1.0 | 6.0 | 0.00 | 0.00 | 0.00 | 76 | 1009.8 |
| 20260510162711 | 86 | 90 | 0.0 | 3.0 | 0.00 | 0.00 | 0.00 | 77 | 1009.8 |
| 20260510161811 | 86 | 108 | 0.0 | 9.0 | 0.00 | 0.00 | 0.00 | 78 | 1010.0 |
| 20260510160911 | 85 | 76 | 0.0 | 5.0 | 0.00 | 0.00 | 0.00 | 80 | 1010.1 |
| 20260510155111 | 83 | 52 | 0.0 | 5.0 | 0.00 | 0.00 | 0.00 | 83 | 1010.4 |
| 20260510154211 | 83 | 73 | 0.0 | 7.0 | 0.00 | 0.00 | 0.00 | 83 | 1010.4 |
| 20260510153311 | 83 | 44 | 0.0 | 5.0 | 0.00 | 0.00 | 0.00 | 83 | 1010.5 |
| 20260510151020 | 82 | 39 | 1.0 | 7.0 | 0.00 | 0.00 | 0.00 | 86 | 1010.4 |
| 20260510150120 | 81 | 30 | 1.0 | 11.0 | 0.00 | 0.00 | 0.00 | 86 | 1010.4 |
| 20260510142943 | 80 | 48 | 0.0 | 6.0 | 0.00 | 0.00 | 0.00 | 88 | 1010.3 |
| 20260510142042 | 80 | 32 | 1.0 | 9.0 | 0.00 | 0.00 | 0.00 | 90 | 1010.4 |
| 20260510141142 | 79 | 18 | 3.0 | 9.0 | 0.00 | 0.00 | 0.00 | 91 | 1010.4 |
| 20260510140242 | 79 | 56 | 1.0 | 7.0 | 0.00 | 0.00 | 0.00 | 91 | 1010.1 |
| 20260510135343 | 78 | 78 | 1.0 | 9.0 | 0.00 | 0.00 | 0.00 | 92 | 1010.0 |
| 20260510134442 | 78 | 0 | 0.0 | 0.0 | 0.00 | 0.00 | 0.00 | 93 | 1010.0 |
| 20260510133543 | 78 | 0 | 0.0 | 0.0 | 0.00 | 0.00 | 0.00 | 94 | 1009.8 |
| 20260510131742 | 77 | 0 | 0.0 | 0.0 | 0.00 | 0.00 | 0.00 | 94 | 1009.6 |
| 20260510130842 | 77 | 0 | 0.0 | 0.0 | 0.00 | 0.00 | 0.00 | 95 | 1009.2 |
| 20260510125942 | 77 | 0 | 0.0 | 0.0 | 0.00 | 0.00 | 0.00 | 95 | 1009.2 |
| 20260510124143 | 76 | 0 | 0.0 | 0.0 | 0.00 | 0.00 | 0.00 | 95 | 1009.1 |
| 20260510123242 | 76 | 0 | 0.0 | 0.0 | 0.00 | 0.00 | 0.00 | 94 | 1008.6 |
| 20260510122342 | 76 | 0 | 0.0 | 0.0 | 0.00 | 0.00 | 0.00 | 95 | 1008.4 |
| 20260510121443 | 76 | 0 | 0.0 | 0.0 | 0.00 | 0.00 | 0.00 | 94 | 1008.4 |
| 20260510120542 | 76 | 0 | 0.0 | 0.0 | 0.00 | 0.00 | 0.00 | 94 | 1008.0 |
| 20260510114742 | 76 | 203 | 0.0 | 6.0 | 0.00 | 0.00 | 0.00 | 94 | 1007.6 |
| 20260510113842 | 76 | 0 | 0.0 | 0.0 | 0.00 | 0.00 | 0.00 | 94 | 1007.5 |
| 20260510112942 | 76 | 203 | 1.0 | 9.0 | 0.00 | 0.00 | 0.00 | 94 | 1007.5 |
| 20260510111142 | 76 | 198 | 1.0 | 7.0 | 0.00 | 0.00 | 0.00 | 94 | 1007.1 |
| 20260510105342 | 76 | 199 | 1.0 | 6.0 | 0.00 | 0.00 | 0.00 | 95 | 1006.9 |
| 20260510104442 | 76 | 203 | 1.0 | 6.0 | 0.00 | 0.00 | 0.00 | 95 | 1006.9 |
| 20260510103542 | 75 | 0 | 0.0 | 0.0 | 0.00 | 0.00 | 0.00 | 94 | 1006.5 |
| 20260510102642 | 75 | 205 | 0.0 | 5.0 | 0.00 | 0.00 | 0.00 | 95 | 1006.5 |
| 20260510101742 | 75 | 207 | 1.0 | 9.0 | 0.00 | 0.00 | 0.00 | 94 | 1006.6 |
| 20260510100842 | 75 | 205 | 0.0 | 9.0 | 0.00 | 0.00 | 0.00 | 94 | 1006.5 |
| 20260510095943 | 75 | 196 | 1.0 | 4.0 | 0.00 | 0.00 | 0.00 | 94 | 1006.5 |
| 20260510095042 | 75 | 187 | 2.0 | 10.0 | 0.00 | 0.00 | 0.00 | 94 | 1006.5 |
| 20260510094143 | 75 | 183 | 4.0 | 12.0 | 0.00 | 0.00 | 0.00 | 94 | 1006.5 |
| 20260510093242 | 75 | 184 | 5.0 | 15.0 | 0.00 | 0.00 | 0.00 | 95 | 1006.5 |
| 20260510092342 | 75 | 186 | 4.0 | 11.0 | 0.00 | 0.00 | 0.00 | 95 | 1006.5 |
| 20260510091442 | 75 | 181 | 3.0 | 11.0 | 0.00 | 0.00 | 0.00 | 95 | 1006.5 |
| 20260510090542 | 75 | 187 | 4.0 | 12.0 | 0.00 | 0.00 | 0.00 | 95 | 1006.6 |
| 20260510085642 | 75 | 179 | 3.0 | 10.0 | 0.00 | 0.00 | 0.00 | 95 | 1006.6 |
| 20260510083842 | 75 | 0 | 0.0 | 0.0 | 0.00 | 0.00 | 0.00 | 95 | 1006.6 |
| 20260510082943 | 75 | 0 | 0.0 | 0.0 | 0.00 | 0.00 | 0.00 | 94 | 1006.6 |
| 20260510082042 | 75 | 186 | 0.0 | 6.0 | 0.00 | 0.00 | 0.00 | 94 | 1006.6 |
| 20260510081142 | 75 | 174 | 1.0 | 9.0 | 0.00 | 0.00 | 0.00 | 94 | 1006.5 |
| 20260510080242 | 75 | 0 | 0.0 | 0.0 | 0.00 | 0.00 | 0.00 | 94 | 1006.5 |
| 20260510075342 | 75 | 0 | 0.0 | 0.0 | 0.00 | 0.00 | 0.00 | 93 | 1006.4 |
| 20260510074442 | 75 | 176 | 1.0 | 7.0 | 0.00 | 0.00 | 0.00 | 93 | 1006.4 |
| 20260510073543 | 75 | 185 | 2.0 | 11.0 | 0.00 | 0.00 | 0.00 | 93 | 1006.5 |
| 20260510072642 | 76 | 182 | 1.0 | 10.0 | 0.00 | 0.00 | 0.00 | 92 | 1006.5 |
| 20260510071742 | 76 | 184 | 2.0 | 9.0 | 0.00 | 0.00 | 0.00 | 93 | 1006.5 |
| 20260510070842 | 76 | 172 | 1.0 | 7.0 | 0.00 | 0.00 | 0.00 | 93 | 1006.7 |
| 20260510065942 | 76 | 191 | 1.0 | 10.0 | 0.00 | 0.00 | 0.00 | 93 | 1006.7 |
| 20260510065042 | 76 | 198 | 0.0 | 6.0 | 0.00 | 0.00 | 0.00 | 93 | 1006.5 |
| 20260510064142 | 76 | 194 | 1.0 | 7.0 | 0.00 | 0.00 | 0.00 | 93 | 1006.5 |
| 20260510063242 | 76 | 196 | 1.0 | 9.0 | 0.00 | 0.00 | 0.00 | 93 | 1006.6 |
| 20260510062342 | 76 | 196 | 3.0 | 7.0 | 0.00 | 0.00 | 0.00 | 93 | 1006.7 |
| 20260510061442 | 77 | 187 | 2.0 | 10.0 | 0.00 | 0.00 | 0.00 | 93 | 1006.7 |
| 20260510060542 | 77 | 186 | 2.0 | 11.0 | 0.00 | 0.00 | 0.00 | 92 | 1006.8 |
| 20260510055643 | 77 | 185 | 0.0 | 7.0 | 0.00 | 0.00 | 0.00 | 92 | 1006.8 |
| 20260510054742 | 77 | 154 | 1.0 | 9.0 | 0.00 | 0.00 | 0.00 | 92 | 1006.9 |
| 20260510053842 | 77 | 122 | 0.0 | 9.0 | 0.00 | 0.00 | 0.00 | 91 | 1007.0 |
| 20260510052942 | 77 | 147 | 1.0 | 10.0 | 0.00 | 0.00 | 0.00 | 91 | 1007.0 |
| 20260510051142 | 77 | 139 | 1.0 | 6.0 | 0.00 | 0.00 | 0.00 | 92 | 1007.1 |
| 20260510050243 | 77 | 144 | 2.0 | 12.0 | 0.00 | 0.00 | 0.00 | 92 | 1007.0 |
| 20260510045342 | 77 | 145 | 2.0 | 12.0 | 0.00 | 0.00 | 0.00 | 92 | 1007.4 |
| 20260510044442 | 78 | 151 | 1.0 | 12.0 | 0.00 | 0.00 | 0.00 | 92 | 1007.4 |
| 20260510043542 | 78 | 119 | 1.0 | 6.0 | 0.00 | 0.00 | 0.00 | 91 | 1007.5 |
| 20260510042642 | 78 | 123 | 0.0 | 5.0 | 0.00 | 0.00 | 0.00 | 91 | 1007.5 |
| 20260510041742 | 78 | 85 | 1.0 | 8.0 | 0.00 | 0.00 | 0.00 | 90 | 1007.5 |
| 20260510040842 | 78 | 104 | 1.0 | 7.0 | 0.00 | 0.00 | 0.00 | 89 | 1007.1 |
| 20260510035943 | 78 | 103 | 1.0 | 7.0 | 0.00 | 0.00 | 0.00 | 88 | 1007.1 |
| 20260510035042 | 78 | 91 | 0.0 | 6.0 | 0.00 | 0.00 | 0.00 | 88 | 1007.4 |
| 20260510034142 | 79 | 103 | 1.0 | 7.0 | 0.00 | 0.00 | 0.00 | 88 | 1007.4 |
| 20260510033242 | 79 | 125 | 1.0 | 7.0 | 0.00 | 0.00 | 0.00 | 87 | 1007.5 |
| 20260510032342 | 80 | 109 | 1.0 | 9.0 | 0.00 | 0.00 | 0.00 | 86 | 1007.5 |
| 20260510031442 | 80 | 134 | 2.0 | 9.0 | 0.00 | 0.00 | 0.00 | 85 | 1007.5 |
| 20260510030542 | 81 | 110 | 1.0 | 10.0 | 0.00 | 0.00 | 0.00 | 85 | 1007.2 |
| 20260510025642 | 81 | 96 | 2.0 | 14.0 | 0.00 | 0.00 | 0.00 | 83 | 1007.2 |
| 20260510024742 | 81 | 106 | 1.0 | 9.0 | 0.00 | 0.00 | 0.00 | 77 | 1006.7 |
| 20260510023843 | 81 | 119 | 1.0 | 9.0 | 0.00 | 0.00 | 0.00 | 75 | 1006.4 |
| 20260510022942 | 81 | 121 | 1.0 | 7.0 | 0.00 | 0.00 | 0.00 | 74 | 1006.4 |
| 20260510022042 | 81 | 157 | 0.0 | 6.0 | 0.00 | 0.00 | 0.00 | 72 | 1006.0 |
| 20260510015343 | 81 | 195 | 2.0 | 10.0 | 0.00 | 0.00 | 0.00 | 70 | 1005.2 |
| 20260510014442 | 80 | 198 | 1.0 | 7.0 | 0.00 | 0.00 | 0.00 | 72 | 1005.2 |
| 20260510013543 | 80 | 205 | 0.0 | 4.0 | 0.00 | 0.00 | 0.00 | 82 | 1004.9 |
| 20260510012642 | 80 | 0 | 0.0 | 0.0 | 0.00 | 0.00 | 0.00 | 82 | 1004.9 |
| 20260510011742 | 80 | 0 | 0.0 | 0.0 | 0.00 | 0.00 | 0.00 | 82 | 1004.5 |
| 20260510005942 | 81 | 0 | 0.0 | 0.0 | 0.00 | 0.00 | 0.00 | 81 | 1004.4 |
| 20260510002342 | 83 | 0 | 0.0 | 0.0 | 0.00 | 0.00 | 0.00 | 78 | 1003.9 |
| 20260510001442 | 85 | 0 | 0.0 | 0.0 | 0.00 | 0.00 | 0.00 | 76 | 1003.9 |
| 20260509234742 | 88 | 199 | 2.0 | 11.0 | 0.00 | 0.00 | 0.00 | 65 | 1003.4 |
| 20260509232942 | 89 | 190 | 2.0 | 11.0 | 0.00 | 0.00 | 0.00 | 60 | 1003.7 |
| 20260509232042 | 89 | 201 | 1.0 | 9.0 | 0.00 | 0.00 | 0.00 | 58 | 1003.5 |
| 20260509230430 | 90 | 210 | 0.0 | 6.0 | 0.00 | 0.00 | 0.00 | 59 | 1003.3 |
| 20260509225528 | 90 | 216 | 0.0 | 6.0 | 0.00 | 0.00 | 0.00 | 59 | 1003.3 |
| 20260509224628 | 90 | 222 | 0.0 | 5.0 | 0.00 | 0.00 | 0.00 | 56 | 1003.3 |
| 20260509223729 | 91 | 276 | 0.0 | 4.0 | 0.00 | 0.00 | 0.00 | 58 | 1003.1 |
| 20260509221929 | 92 | 0 | 0.0 | 0.0 | 0.00 | 0.00 | 0.00 | 61 | 1003.0 |
| 20260509221029 | 92 | 0 | 0.0 | 0.0 | 0.00 | 0.00 | 0.00 | 62 | 1003.0 |
| 20260509220129 | 92 | 0 | 0.0 | 0.0 | 0.00 | 0.00 | 0.00 | 62 | 1003.0 |
| 20260509215229 | 92 | 0 | 0.0 | 0.0 | 0.00 | 0.00 | 0.00 | 60 | 1003.1 |